STARLINK-5196 (55319 NORAD) Tracking and Keplerian Element Data

This shows tracking and keplerian element data for the satellite.

Feedback or suggestion? Click here.




ElementValue
Catalog55319
NameSTARLINK-5196
Epoch Orbit1739
Epoch Day127.11203372
Epoch Year2023
RAAN126.4363
Inclination69.9981
Eccentricity0.0002436
Argument of Perigee264.6717
Mean Anonmoly95.4201
Mean Motion15.69928776
Decay Rate1.887E-05
L11 55319U 23010BC 23127.11203372 .00001887 00000+0 17451-4 0 9998
L22 55319 69.9981 126.4363 0002436 264.6717 95.4201 15.69928776 17391



Live tracking and technical data element details for STARLINK-5196 (NORAD 55319). STARLINK-5196 can be tracked NOW for your location showing map with azimuth and elevation plus other details from your city location.







IsCatalogInMostPopularTable: catalog: 55319, numindb: 1
Update: records affected: 1



GetName: 55319 STARLINK-5196

Hit Count: updated at: Mon, 05 Jun 2023 20:24:02 GMT